When you browse on this site, cookies collect data to enhance your experience and personalize the content and advertising you see.
Visit our Privacy Policy to learn more. By continuing to use the site, you agree to this use of cookies and data.
  • In Hungary
  • List of Countries
  • For 7 days
  • Water Temperature
  • Satellite Maps
  • Weather Map
  • News
  • Weather Widgets
  • user-avatar
    Login

    Hourly Weather Ashtarak

    Today, 19 March, Tuesday

    Time Temperature Precipitation Wind Pressure Humidity
    00:00 -1°C° 0 mm 0 mps 658 mmHg 59%
    01:00 -1°C° 0.1 mm 0 mps 658 mmHg 60%
    02:00 -1°C° 0.1 mm 0 mps 658 mmHg 62%
    03:00 -1°C° 0 mm 1 mps 658 mmHg 63%
    04:00 -1°C° 0.1 mm 1 mps 658 mmHg 65%
    05:00 -3°C° 0.1 mm 0 mps 658 mmHg 66%
    06:00 -3°C° 0.1 mm 0 mps 658 mmHg 68%
    07:00 -1°C° 0 mm 1 mps 659 mmHg 65%
    08:00 0°C° 0 mm 1 mps 659 mmHg 62%
    09:00 +2°C° 0 mm 1 mps 659 mmHg 62%
    10:00 +2°C° 0.1 mm 1 mps 659 mmHg 59%
    11:00 +3°C° 0.1 mm 1 mps 659 mmHg 56%
    12:00 +4°C° 0.1 mm 1 mps 659 mmHg 53%
    13:00 +5°C° 0 mm 1 mps 659 mmHg 51%
    14:00 +5°C° 0 mm 1 mps 659 mmHg 49%
    15:00 +6°C° 0 mm 1 mps 658 mmHg 48%
    16:00 +4°C° 0 mm 2 mps 658 mmHg 50%
    17:00 +4°C° 0 mm 2 mps 659 mmHg 51%
    18:00 +3°C° 0 mm 2 mps 659 mmHg 52%
    19:00 +3°C° 0 mm 1 mps 659 mmHg 54%
    20:00 +3°C° 0 mm 1 mps 659 mmHg 55%
    21:00 +2°C° 0 mm 1 mps 659 mmHg 56%
    22:00 +2°C° 0 mm 1 mps 659 mmHg 57%
    23:00 +1°C° 0 mm 1 mps 659 mmHg 58%

    Tomorrow, 20 March, Wednesday

    Time Temperature Precipitation Wind Pressure Humidity
    00:00 +1°C° 0 mm 1 mps 659 mmHg 59%
    01:00 +1°C° 0 mm 1 mps 659 mmHg 60%
    02:00 +1°C° 0 mm 1 mps 659 mmHg 61%
    03:00 +1°C° 0 mm 1 mps 658 mmHg 61%
    04:00 +1°C° 0 mm 1 mps 658 mmHg 62%
    05:00 -1°C° 0 mm 0 mps 658 mmHg 62%
    06:00 -1°C° 0 mm 0 mps 658 mmHg 63%
    07:00 +2°C° 0.1 mm 1 mps 658 mmHg 60%
    08:00 +3°C° 0.1 mm 1 mps 658 mmHg 58%
    09:00 +4°C° 0.1 mm 1 mps 658 mmHg 56%
    10:00 +5°C° 0.1 mm 1 mps 658 mmHg 54%
    11:00 +6°C° 0.1 mm 1 mps 658 mmHg 53%
    12:00 +6°C° 0.1 mm 2 mps 657 mmHg 52%
    13:00 +7°C° 0.1 mm 2 mps 657 mmHg 51%
    14:00 +7°C° 0.1 mm 2 mps 657 mmHg 51%
    15:00 +8°C° 0.1 mm 2 mps 657 mmHg 50%
    16:00 +7°C° 0.1 mm 2 mps 657 mmHg 51%
    17:00 +8°C° 0.1 mm 1 mps 657 mmHg 53%
    18:00 +8°C° 0.1 mm 1 mps 657 mmHg 55%
    19:00 +7°C° 0.2 mm 1 mps 658 mmHg 57%
    20:00 +7°C° 0.2 mm 1 mps 658 mmHg 58%
    21:00 +6°C° 0.2 mm 1 mps 658 mmHg 60%
    22:00 +6°C° 0.1 mm 1 mps 658 mmHg 62%
    23:00 +5°C° 0.1 mm 1 mps 658 mmHg 64%

    Day after tomorrow, 21 March, Thursday

    Time Temperature Precipitation Wind Pressure Humidity
    00:00 +5°C° 0.1 mm 1 mps 658 mmHg 66%
    01:00 +5°C° 0.1 mm 1 mps 658 mmHg 68%
    02:00 +4°C° 0.1 mm 1 mps 658 mmHg 69%
    03:00 +4°C° 0.1 mm 1 mps 658 mmHg 71%
    04:00 +4°C° 0.1 mm 1 mps 658 mmHg 72%
    05:00 +3°C° 0.1 mm 1 mps 658 mmHg 73%
    06:00 +3°C° 0.1 mm 1 mps 658 mmHg 74%
    07:00 +4°C° 0 mm 1 mps 658 mmHg 69%
    08:00 +6°C° 0 mm 1 mps 658 mmHg 65%
    09:00 +7°C° 0 mm 1 mps 659 mmHg 61%
    10:00 +8°C° 0 mm 1 mps 658 mmHg 59%
    11:00 +9°C° 0 mm 1 mps 658 mmHg 56%
    12:00 +10°C° 0 mm 1 mps 658 mmHg 54%
    13:00 +10°C° 0 mm 1 mps 658 mmHg 52%
    14:00 +10°C° 0 mm 1 mps 658 mmHg 51%
    15:00 +11°C° 0 mm 1 mps 657 mmHg 49%
    16:00 +10°C° 0 mm 1 mps 657 mmHg 50%
    17:00 +10°C° 0 mm 1 mps 657 mmHg 51%
    18:00 +9°C° 0 mm 1 mps 657 mmHg 52%
    19:00 +8°C° 0 mm 1 mps 658 mmHg 54%
    20:00 +7°C° 0 mm 1 mps 658 mmHg 57%
    21:00 +7°C° 0 mm 1 mps 659 mmHg 60%
    22:00 +6°C° 0 mm 1 mps 659 mmHg 61%
    23:00 +6°C° 0 mm 1 mps 659 mmHg 63%

    22 March, Friday

    Time Temperature Precipitation Wind Pressure Humidity
    00:00 +5°C° 0 mm 1 mps 659 mmHg 65%
    01:00 +4°C° 0 mm 0 mps 659 mmHg 66%
    02:00 +3°C° 0 mm 0 mps 659 mmHg 67%
    03:00 +3°C° 0 mm 0 mps 659 mmHg 68%
    04:00 +3°C° 0 mm 0 mps 659 mmHg 69%
    05:00 +2°C° 0 mm 0 mps 659 mmHg 69%
    06:00 +2°C° 0 mm 0 mps 659 mmHg 70%
    07:00 +4°C° 0 mm 1 mps 659 mmHg 65%
    08:00 +5°C° 0 mm 1 mps 659 mmHg 61%
    09:00 +6°C° 0 mm 2 mps 660 mmHg 57%
    10:00 +6°C° 0 mm 2 mps 659 mmHg 53%
    11:00 +7°C° 0 mm 2 mps 659 mmHg 49%
    12:00 +8°C° 0 mm 3 mps 659 mmHg 45%
    13:00 +9°C° 0 mm 3 mps 659 mmHg 43%
    14:00 +9°C° 0 mm 3 mps 658 mmHg 40%
    15:00 +9°C° 0 mm 3 mps 658 mmHg 38%
    16:00 +9°C° 0 mm 3 mps 658 mmHg 40%
    17:00 +8°C° 0 mm 2 mps 658 mmHg 43%
    18:00 +7°C° 0 mm 2 mps 658 mmHg 45%
    19:00 +6°C° 0 mm 2 mps 659 mmHg 49%
    20:00 +5°C° 0 mm 2 mps 659 mmHg 52%
    21:00 +5°C° 0 mm 1 mps 660 mmHg 55%
    22:00 +5°C° 0 mm 1 mps 659 mmHg 58%
    23:00 +4°C° 0 mm 1 mps 659 mmHg 60%

    23 March, Saturday

    Time Temperature Precipitation Wind Pressure Humidity
    00:00 +4°C° 0 mm 1 mps 659 mmHg 62%
    01:00 +3°C° 0 mm 1 mps 659 mmHg 63%
    02:00 +2°C° 0 mm 0 mps 659 mmHg 64%
    03:00 +1°C° 0 mm 0 mps 659 mmHg 65%
    04:00 +1°C° 0 mm 0 mps 659 mmHg 66%
    05:00 +1°C° 0 mm 1 mps 658 mmHg 66%
    06:00 +1°C° 0 mm 1 mps 658 mmHg 66%
    07:00 +2°C° 0 mm 1 mps 658 mmHg 61%
    08:00 +4°C° 0 mm 1 mps 658 mmHg 55%
    09:00 +4°C° 0 mm 2 mps 658 mmHg 50%
    10:00 +5°C° 0 mm 2 mps 657 mmHg 48%
    11:00 +6°C° 0 mm 2 mps 657 mmHg 46%
    12:00 +7°C° 0 mm 2 mps 656 mmHg 44%
    13:00 +7°C° 0 mm 2 mps 656 mmHg 43%
    14:00 +7°C° 0 mm 3 mps 655 mmHg 43%
    15:00 +8°C° 0 mm 3 mps 654 mmHg 43%
    16:00 +7°C° 0.1 mm 2 mps 654 mmHg 44%
    17:00 +7°C° 0.1 mm 2 mps 654 mmHg 46%
    18:00 +6°C° 0.1 mm 2 mps 654 mmHg 48%
    19:00 +6°C° 0.3 mm 2 mps 654 mmHg 51%
    20:00 +5°C° 0.3 mm 2 mps 655 mmHg 53%
    21:00 +6°C° 0.3 mm 1 mps 655 mmHg 56%
    22:00 +5°C° 0.3 mm 1 mps 655 mmHg 58%
    23:00 +5°C° 0.3 mm 1 mps 654 mmHg 60%

    24 March, Sunday

    Time Temperature Precipitation Wind Pressure Humidity
    00:00 +4°C° 0.3 mm 1 mps 654 mmHg 63%
    01:00 +4°C° 0.4 mm 1 mps 654 mmHg 65%
    02:00 +3°C° 0.4 mm 2 mps 654 mmHg 67%
    03:00 +2°C° 0.4 mm 2 mps 654 mmHg 70%
    04:00 +2°C° 0.2 mm 2 mps 654 mmHg 69%
    05:00 +2°C° 0.2 mm 2 mps 654 mmHg 69%
    06:00 +1°C° 0.2 mm 2 mps 654 mmHg 68%
    07:00 +2°C° 0.1 mm 2 mps 655 mmHg 63%
    08:00 +2°C° 0.1 mm 2 mps 655 mmHg 57%
    09:00 +3°C° 0.1 mm 2 mps 656 mmHg 52%
    10:00 +4°C° 0.1 mm 2 mps 656 mmHg 49%
    11:00 +4°C° 0.1 mm 2 mps 656 mmHg 47%
    12:00 +5°C° 0.1 mm 2 mps 656 mmHg 45%
    13:00 +5°C° 0.1 mm 2 mps 656 mmHg 45%
    14:00 +5°C° 0.1 mm 2 mps 656 mmHg 45%
    15:00 +5°C° 0.1 mm 3 mps 656 mmHg 45%
    16:00 +5°C° 0 mm 2 mps 656 mmHg 47%
    17:00 +4°C° 0 mm 2 mps 657 mmHg 49%
    18:00 +4°C° 0 mm 2 mps 657 mmHg 50%
    19:00 +3°C° 0 mm 2 mps 658 mmHg 53%
    20:00 +2°C° 0 mm 2 mps 658 mmHg 55%
    21:00 +1°C° 0 mm 2 mps 659 mmHg 58%
    22:00 +1°C° 0 mm 2 mps 659 mmHg 59%
    23:00 -1°C° 0 mm 2 mps 659 mmHg 61%
    Show more